STARLINK-2086 (47370 NORAD) Tracking and Keplerian Element Data

This shows tracking and keplerian element data for the satellite.

Feedback or suggestion? Click here.




ElementValue
Catalog47370
NameSTARLINK-2086
Epoch Orbit1375
Epoch Day106.25002315
Epoch Year2021
RAAN150.7326
Inclination53.0531
Eccentricity0.0004322
Argument of Perigee7.0784
Mean Anonmoly71.5117
Mean Motion15.62790346
Decay Rate-4.263E-05
L11 47370U 21005X 21106.25002315 -.00004263 00000-0 -40620-4 0 9990
L22 47370 53.0531 150.7326 0004322 7.0784 71.5117 15.62790346 13752

Live tracking and technical data element details for STARLINK-2086 (NORAD 47370). STARLINK-2086 can be tracked NOW for your location showing map with azimuth and elevation plus other details from your city location.

Track the satellite on the map from your city or location and see movement details for azimuth, elevation, latitude, longitude, range, height, and movement on the map or in text.







IsCatalogInMostPopularTable: catalog: 47370, numindb: 16
Update: records affected: 1



GetName: 47370 STARLINK-2086

Hit Count: updated at: Fri, 16 Apr 2021 11:52:19 GMT